Time,TemperatureF,DewpointF,PressureIn,WindDirection,WindDirectionDegrees,WindSpeedMPH,WindSpeedGustMPH,Humidity,HourlyPrecipIn,Conditions,Clouds,dailyrainin,SoftwareType,DateUTC
2013-11-22 00:07:00,73.8,28.0,30.84,SSE,167,2.0,-999.0,18,-99.99,,,0.00,weatherlink.com 1.10,2013-11-22 06:07:00,
2013-11-22 00:21:00,73.8,28.0,30.85,SSE,148,2.0,-999.0,18,-99.99,,,0.00,weatherlink.com 1.10,2013-11-22 06:21:00,
2013-11-22 00:36:00,73.8,28.0,30.85,SSE,166,1.0,-999.0,18,-99.99,,,0.00,weatherlink.com 1.10,2013-11-22 06:36:00,
2013-11-22 00:51:00,73.8,28.0,30.85,SSE,168,1.0,-999.0,18,-99.99,,,0.00,weatherlink.com 1.10,2013-11-22 06:51:00,
2013-11-22 01:06:00,73.8,26.0,30.85,SSE,154,3.0,-999.0,17,-99.99,,,0.00,weatherlink.com 1.10,2013-11-22 07:06:00,
2013-11-22 01:22:00,73.8,26.0,30.84,SSE,150,1.0,-999.0,17,-99.99,,,0.00,weatherlink.com 1.10,2013-11-22 07:22:00,
2013-11-22 01:37:00,73.8,26.0,30.85,South,169,4.0,-999.0,17,-99.99,,,0.00,weatherlink.com 1.10,2013-11-22 07:37:00,
2013-11-22 01:52:00,73.7,26.0,30.84,SSE,150,3.0,-999.0,17,-99.99,,,0.00,weatherlink.com 1.10,2013-11-22 07:52:00,
2013-11-22 02:07:00,73.6,26.0,30.84,SSE,162,3.0,-999.0,17,-99.99,,,0.00,weatherlink.com 1.10,2013-11-22 08:07:00,
2013-11-22 02:37:00,73.4,26.0,30.84,SSW,194,3.0,-999.0,17,-99.99,,,0.00,weatherlink.com 1.10,2013-11-22 08:37:00,
2013-11-22 02:52:00,73.4,26.0,30.84,South,173,1.0,-999.0,17,-99.99,,,0.00,weatherlink.com 1.10,2013-11-22 08:52:00,
2013-11-22 03:07:00,73.4,26.0,30.84,South,169,2.0,-999.0,17,-99.99,,,0.00,weatherlink.com 1.10,2013-11-22 09:07:00,
2013-11-22 03:22:00,73.4,26.0,30.84,SSE,167,1.0,-999.0,17,-99.99,,,0.00,weatherlink.com 1.10,2013-11-22 09:22:00,
2013-11-22 03:37:00,73.3,26.0,30.84,SSE,164,0.0,-999.0,17,-99.99,,,0.00,weatherlink.com 1.10,2013-11-22 09:37:00,
2013-11-22 03:52:00,59.8,29.0,30.88,WNW,298,1.0,-999.0,31,-99.99,,,0.00,weatherlink.com 1.10,2013-11-22 09:52:00,
2013-11-22 04:07:00,55.9,20.0,30.89,North,355,7.0,-999.0,25,-99.99,,,0.00,weatherlink.com 1.10,2013-11-22 10:07:00,
2013-11-22 04:22:00,54.9,18.0,30.91,NW,313,3.0,-999.0,23,-99.99,,,0.02,weatherlink.com 1.10,2013-11-22 10:22:00,
2013-11-22 04:37:00,53.5,17.0,30.91,NW,321,5.0,-999.0,24,-99.99,,,0.03,weatherlink.com 1.10,2013-11-22 10:37:00,
2013-11-22 04:52:00,52.6,16.0,30.94,NW,310,5.0,-999.0,23,-99.99,,,0.04,weatherlink.com 1.10,2013-11-22 10:52:00,
2013-11-22 05:07:00,51.5,16.0,30.94,WNW,289,4.0,-999.0,24,-99.99,,,0.04,weatherlink.com 1.10,2013-11-22 11:07:00,
2013-11-22 05:22:00,50.7,15.0,30.94,NW,318,2.0,-999.0,24,-99.99,,,0.04,weatherlink.com 1.10,2013-11-22 11:22:00,
2013-11-22 05:37:00,49.8,14.0,30.95,WNW,292,9.0,-999.0,24,-99.99,,,0.04,weatherlink.com 1.10,2013-11-22 11:37:00,
2013-11-22 05:52:00,49.3,14.0,30.96,NW,317,7.0,-999.0,24,-99.99,,,0.04,weatherlink.com 1.10,2013-11-22 11:52:00,
2013-11-22 06:07:00,48.6,13.0,30.98,NW,326,5.0,-999.0,24,-99.99,,,0.04,weatherlink.com 1.10,2013-11-22 12:07:00,
2013-11-22 06:22:00,48.5,13.0,30.98,NW,311,8.0,-999.0,24,-99.99,,,0.04,weatherlink.com 1.10,2013-11-22 12:22:00,
2013-11-22 06:37:00,48.2,13.0,30.98,NW,313,4.0,-999.0,24,-99.99,,,0.04,weatherlink.com 1.10,2013-11-22 12:37:00,
2013-11-22 06:52:00,47.7,13.0,31.01,NW,306,4.0,-999.0,25,-99.99,,,0.04,weatherlink.com 1.10,2013-11-22 12:52:00,
2013-11-22 07:08:00,46.9,13.0,31.01,NW,317,6.0,-999.0,25,-99.99,,,0.04,weatherlink.com 1.10,2013-11-22 13:08:00,
2013-11-22 07:23:00,46.9,13.0,31.02,NNW,332,5.0,-999.0,25,-99.99,,,0.04,weatherlink.com 1.10,2013-11-22 13:23:00,
2013-11-22 07:38:00,47.1,13.0,31.04,NW,319,1.0,-999.0,25,-99.99,,,0.04,weatherlink.com 1.10,2013-11-22 13:38:00,
2013-11-22 07:53:00,46.9,13.0,31.05,NW,321,5.0,-999.0,25,-99.99,,,0.04,weatherlink.com 1.10,2013-11-22 13:53:00,
2013-11-22 08:08:00,46.4,12.0,31.05,NW,313,6.0,-999.0,25,-99.99,,,0.04,weatherlink.com 1.10,2013-11-22 14:08:00,
2013-11-22 08:23:00,46.4,12.0,31.06,NW,319,4.0,-999.0,25,-99.99,,,0.04,weatherlink.com 1.10,2013-11-22 14:23:00,
2013-11-22 08:38:00,46.3,13.0,31.05,NW,320,6.0,-999.0,26,-99.99,,,0.04,weatherlink.com 1.10,2013-11-22 14:38:00,
2013-11-22 08:53:00,46.4,12.0,31.06,NW,306,7.0,-999.0,25,-99.99,,,0.04,weatherlink.com 1.10,2013-11-22 14:53:00,
2013-11-22 09:08:00,46.6,14.0,31.07,NNW,327,10.0,-999.0,27,-99.99,,,0.04,weatherlink.com 1.10,2013-11-22 15:08:00,
2013-11-22 09:22:00,46.8,14.0,31.07,WNW,295,6.0,-999.0,27,-99.99,,,0.04,weatherlink.com 1.10,2013-11-22 15:22:00,
2013-11-22 09:38:00,46.4,14.0,31.07,NNW,327,5.0,-999.0,27,-99.99,,,0.04,weatherlink.com 1.10,2013-11-22 15:38:00,
2013-11-22 09:53:00,46.0,14.0,31.07,NW,317,8.0,-999.0,27,-99.99,,,0.04,weatherlink.com 1.10,2013-11-22 15:53:00,
2013-11-22 10:08:00,46.1,13.0,31.09,WNW,303,3.0,-999.0,26,-99.99,,,0.04,weatherlink.com 1.10,2013-11-22 16:08:00,
2013-11-22 10:23:00,46.3,13.0,31.09,WNW,296,3.0,-999.0,26,-99.99,,,0.04,weatherlink.com 1.10,2013-11-22 16:23:00,
2013-11-22 10:38:00,46.6,13.0,31.09,NW,315,6.0,-999.0,26,-99.99,,,0.04,weatherlink.com 1.10,2013-11-22 16:38:00,
2013-11-22 10:53:00,46.3,14.0,31.09,NW,313,5.0,-999.0,27,-99.99,,,0.04,weatherlink.com 1.10,2013-11-22 16:53:00,
2013-11-22 11:08:00,46.1,14.0,31.10,NW,313,6.0,-999.0,27,-99.99,,,0.04,weatherlink.com 1.10,2013-11-22 17:08:00,
2013-11-22 11:22:00,46.1,15.0,31.10,NW,304,6.0,-999.0,29,-99.99,,,0.04,weatherlink.com 1.10,2013-11-22 17:22:00,
2013-11-22 11:37:00,47.3,16.0,31.10,NNW,332,10.0,-999.0,28,-99.99,,,0.04,weatherlink.com 1.10,2013-11-22 17:37:00,
2013-11-22 11:52:00,47.0,18.0,31.10,NW,316,10.0,-999.0,32,-99.99,,,0.04,weatherlink.com 1.10,2013-11-22 17:52:00,
2013-11-22 12:07:00,47.4,19.0,31.08,NNW,344,5.0,-999.0,32,-99.99,,,0.04,weatherlink.com 1.10,2013-11-22 18:07:00,
2013-11-22 12:22:00,46.9,19.0,31.08,NW,306,6.0,-999.0,33,-99.99,,,0.04,weatherlink.com 1.10,2013-11-22 18:22:00,
2013-11-22 12:37:00,46.3,19.0,31.07,WNW,298,16.0,-999.0,34,-99.99,,,0.04,weatherlink.com 1.10,2013-11-22 18:37:00,
2013-11-22 12:52:00,46.4,19.0,31.06,NNW,328,7.0,-999.0,33,-99.99,,,0.04,weatherlink.com 1.10,2013-11-22 18:52:00,
2013-11-22 13:22:00,46.7,20.0,31.07,NW,310,7.0,-999.0,34,-99.99,,,0.04,weatherlink.com 1.10,2013-11-22 19:22:00,
2013-11-22 13:37:00,46.5,19.0,31.07,NNW,332,13.0,-999.0,34,-99.99,,,0.04,weatherlink.com 1.10,2013-11-22 19:37:00,
2013-11-22 13:52:00,45.9,20.0,31.07,NW,310,12.0,-999.0,35,-99.99,,,0.04,weatherlink.com 1.10,2013-11-22 19:52:00,
2013-11-22 14:07:00,45.7,19.0,31.07,NNW,334,7.0,-999.0,35,-99.99,,,0.04,weatherlink.com 1.10,2013-11-22 20:07:00,
2013-11-22 14:23:00,45.6,19.0,31.06,NW,311,12.0,-999.0,35,-99.99,,,0.04,weatherlink.com 1.10,2013-11-22 20:23:00,
2013-11-22 14:38:00,45.1,17.0,31.06,NNW,339,9.0,-999.0,33,-99.99,,,0.04,weatherlink.com 1.10,2013-11-22 20:38:00,
2013-11-22 14:53:00,44.7,18.0,31.07,WNW,298,9.0,-999.0,35,-99.99,,,0.04,weatherlink.com 1.10,2013-11-22 20:53:00,
2013-11-22 15:08:00,44.6,19.0,31.07,NW,311,13.0,-999.0,36,-99.99,,,0.04,weatherlink.com 1.10,2013-11-22 21:08:00,
2013-11-22 15:23:00,44.6,18.0,31.07,WNW,293,5.0,-999.0,35,-99.99,,,0.04,weatherlink.com 1.10,2013-11-22 21:23:00,
2013-11-22 15:38:00,44.2,16.0,31.08,NW,312,7.0,-999.0,32,-99.99,,,0.04,weatherlink.com 1.10,2013-11-22 21:38:00,
2013-11-22 15:53:00,44.0,13.0,31.09,WNW,296,9.0,-999.0,29,-99.99,,,0.04,weatherlink.com 1.10,2013-11-22 21:53:00,
2013-11-22 16:08:00,43.5,14.0,31.10,WNW,302,4.0,-999.0,30,-99.99,,,0.04,weatherlink.com 1.10,2013-11-22 22:08:00,
2013-11-22 16:23:00,43.7,15.0,31.09,NNW,327,9.0,-999.0,31,-99.99,,,0.04,weatherlink.com 1.10,2013-11-22 22:23:00,
2013-11-22 16:38:00,43.3,15.0,31.08,NW,325,9.0,-999.0,32,-99.99,,,0.04,weatherlink.com 1.10,2013-11-22 22:38:00,
2013-11-22 16:53:00,42.8,16.0,31.10,NNW,331,4.0,-999.0,34,-99.99,,,0.04,weatherlink.com 1.10,2013-11-22 22:53:00,
2013-11-22 17:08:00,42.6,16.0,31.10,WNW,288,11.0,-999.0,34,-99.99,,,0.04,weatherlink.com 1.10,2013-11-22 23:08:00,
2013-11-22 17:24:00,42.5,16.0,31.11,NW,306,6.0,-999.0,35,-99.99,,,0.04,weatherlink.com 1.10,2013-11-22 23:24:00,
2013-11-22 17:39:00,42.5,16.0,31.11,NNW,340,9.0,-999.0,34,-99.99,,,0.04,weatherlink.com 1.10,2013-11-22 23:39:00,
2013-11-22 17:54:00,42.3,14.0,31.12,NW,323,6.0,-999.0,32,-99.99,,,0.04,weatherlink.com 1.10,2013-11-22 23:54:00,
2013-11-22 18:09:00,42.0,14.0,31.13,NW,304,7.0,-999.0,32,-99.99,,,0.04,weatherlink.com 1.10,2013-11-23 00:09:00,
2013-11-22 18:24:00,41.9,15.0,31.13,NW,317,9.0,-999.0,33,-99.99,,,0.04,weatherlink.com 1.10,2013-11-23 00:24:00,
2013-11-22 18:39:00,42.0,15.0,31.13,NW,325,10.0,-999.0,34,-99.99,,,0.04,weatherlink.com 1.10,2013-11-23 00:39:00,
2013-11-22 18:54:00,42.0,15.0,31.14,NW,322,10.0,-999.0,34,-99.99,,,0.04,weatherlink.com 1.10,2013-11-23 00:54:00,
2013-11-22 19:09:00,42.0,15.0,31.14,NNW,329,6.0,-999.0,33,-99.99,,,0.04,weatherlink.com 1.10,2013-11-23 01:09:00,
2013-11-22 23:24:00,40.6,11.0,31.18,NW,306,6.0,-999.0,30,-99.99,,,0.04,weatherlink.com 1.10,2013-11-23 05:24:00,
2013-11-22 23:39:00,40.3,11.0,31.17,NW,323,11.0,-999.0,30,-99.99,,,0.04,weatherlink.com 1.10,2013-11-23 05:39:00,
2013-11-22 23:54:00,40.2,11.0,31.17,WNW,293,5.0,-999.0,30,-99.99,,,0.00,weatherlink.com 1.10,2013-11-23 05:54:00,